Погода в Садовом

Украина / Харьковская область     49°13′40″N   35°27′11″E
темп.,
°C
ветер,
м/с
пор.,
м/с
влажн.,
%
обл.,
%
осадки,
мм/ч
давл.,
гПа
погр.,
м
16 мая, вс
вс1600:00+17ю226585 0.0 101318
03:00+14ю227699 0.0 101314
06:00+14вюв227598 0.0 101216
09:00+21в2257100 0.0 1013396
12:00+24всв3444100 0.0 10121350
15:00+25всв45445 0.0 10111735
18:00+24св575928 0.0 1009608
21:00+19св61481100 1.0 1008317
17 мая, пн
пн1700:00+17всв4891100 0.2 1007144
03:00+15всв51184100 0.2 1005230
06:00+14в51181100 0.0 1004181
09:00+19вюв6136699 0.0 1004566
12:00+24юв8105910 0.0 10031244
15:00+25ююв810595 0.0 10031417
18:00+23ююв696731 0.0 10041292
21:00+19ю61376100 0.0 1005621
18 мая, вт
вт1800:00+15ю5118299 0.0 1006486
03:00+13ююв3694100 0.0 1007132
06:00+14ююв4792100 0.0 1008243
09:00+17ююв4676100 0.0 1008441
12:00+21ююв5660100 0.1 10071234
15:00+23ююв5652100 1.0 10061807
18:00+19ююз5874100 2.0 1005584
21:00+15ю3792100 3.1 1005229
19 мая, ср
ср1900:00+14ю51096100 1.7 1004514
03:00+13ю599794 1.9 1004366
06:00+12ююз6994100 0.0 1004604
09:00+14ююз687787 0.1 1005968
12:00+15ююз797277 0.8 10051261
15:00+14ююз81083100 1.9 1005902
18:00+12юз71294100 1.6 1006826
21:00+12зюз71390100 1.8 1008801
20 мая, чт
чт2000:00+11зюз71389100 0.2 1009917
03:00+10зюз713948 0.3 1010570
06:00+10юз6129414 0.0 1012474
09:00+15зюз697098 0.0 1012812
12:00+18юз565432 0.0 10121375
15:00+20ююз234995 0.0 10121592
18:00+20вюв245797 0.0 10111540
21:00+15всв497144 0.0 1010161